Terug naar catalogus

STARLINK-37273

ActiefCommunicatieVLEO
NORAD 68723·PAYLOAD·🇺🇸 United States

Gelanceerd Apr 14, 2026 vanaf Cape Canaveral Space Force Station

Loading…

Volgende Passages (komende 24 uur)

TLE

VersSource: CelesTrak SupGP

Epoch: Sep 15, 2026, 03:38 UTC

1 68723C 26081AA  26258.15187500 -.00037429  00000+0 -11059-2 0  2585
2 68723  53.1584 230.6063 0001437  83.6429 111.4643 15.34407488    16

Volg STARLINK-37273 in realtime met AllMySat

Download on the App Store